Regional Weather Roundup
Issued by NWS Northern Indiana

Home | Current Version | Previous Version | Graphics & Text | Print | Product List | Glossary On
Versions: 1 2 3 4 5 6 7 8 9 10 11 12 13 14 15 16 17 18 19 20 21 22 23 24 25 26 27 28 29 30 31 32 33 34 35 36 37 38 39 40 41 42 43 44 45 46 47 48 49 50
000
ASUS43 KIWX 251810
RWRIWX

KIWX WEATHER ROUNDUP
NATIONAL WEATHER SERVICE NORTHERN INDIANA
200 PM EDT TUE APR 25 2017

NOTE: "FAIR" INDICATES FEW OR NO CLOUDS BELOW 12,000 FEET WITH NO
SIGNIFICANT WEATHER AND/OR OBSTRUCTIONS TO VISIBILITY.

* THESE STATIONS ARE NOT UNDER NWS QUALITY CONTROL. THEY ALSO MAY NOT
  REPORT WEATHER SUCH AS PRECIPITATION OR FOG.

INZ001>027-251900-
NORTHERN INDIANA

CITY           SKY/WX    TMP DP  RH WIND       PRES   REMARKS
GARY*          PTSUNNY   75  45  33 SE14      29.68F
VALPARAISO     MOSUNNY   76  52  43 S10G23    29.70F
6HR MIN TEMP:  54; 6HR MAX TEMP:  76;

MICHIGAN CITY* PTSUNNY   72  52  49 SE10G16   29.71F
LAPORTE*       MOSUNNY   71  52  50 SE10      29.72F
6HR MIN TEMP:  53; 6HR MAX TEMP:  72;

KNOX*          MOSUNNY   72  27  18 SE10      29.72F
SOUTH BEND     CLOUDY   N/A N/A N/A SE14      29.73F
GOSHEN         SUNNY     70  53  54 SE8G20    29.74F
6HR MIN TEMP:  53; 6HR MAX TEMP:  70;

MONTICELLO*    MOSUNNY   73  49  43 SE7       29.71F
6HR MIN TEMP:  54; 6HR MAX TEMP:  73;

LOGANSPORT*    PTSUNNY   72  54  53 S10       29.73F
ROCHESTER*     CLOUDY    73  54  49 S7        29.73F
WARSAW*        MOSUNNY   70  54  56 SE6       29.74F
ANGOLA*        MOSUNNY   68  59  73 VRB6      29.75F
FORT WAYNE     PTSUNNY   70  54  56 VRB7      29.75F
6HR MIN TEMP:  54; 6HR MAX TEMP:  71;

HUNTINGTON*    MOSUNNY   70  53  55 S5        29.74F
6HR MIN TEMP:  54; 6HR MAX TEMP:  70;

PERU/GRISSOM   MOSUNNY   72  56  56 S8        29.72F
6HR MIN TEMP:  55; 6HR MAX TEMP:  72;

MARION*        MOSUNNY   72  54  53 SE7       29.74F HAZE

$$
INZ028>050-251900-
CENTRAL INDIANA

CITY           SKY/WX    TMP DP  RH WIND       PRES   REMARKS
LAFAYETTE      MOSUNNY   73  53  49 S7G17     29.70F
6HR MIN TEMP:  54; 6HR MAX TEMP:  73;

KOKOMO*        MOSUNNY   72  54  53 VRB7      29.74F
6HR MIN TEMP:  55; 6HR MAX TEMP:  72;

MUNCIE*        SUNNY     72  53  51 SE7       29.74F
6HR MIN TEMP:  56; 6HR MAX TEMP:  73;

INDIANAPOLIS   CLOUDY    71  54  54 E6        29.73F
6HR MIN TEMP:  56; 6HR MAX TEMP:  72;


$$
MIZ043>046-050>051-056>058-064>065-071>073-077>080-251900-
SOUTHWEST LOWER MICHIGAN

CITY           SKY/WX    TMP DP  RH WIND       PRES   REMARKS
BATTLE CREEK   MOSUNNY   68  55  63 SE10      29.75F
6HR MIN TEMP:  54; 6HR MAX TEMP:  68;

BENTON HARBOR  PTSUNNY   73  53  49 S12       29.71F
6HR MIN TEMP:  55; 6HR MAX TEMP:  73;

COLDWATER*     PTSUNNY   67  54  61 S12G20    29.76F
6HR MIN TEMP:  52; 6HR MAX TEMP:  67;

HILLSDALE*     SUNNY     66  52  59 S9G18     29.77F
HOLLAND        MOSUNNY   71  54  54 SE6       29.72F
6HR MIN TEMP:  54; 6HR MAX TEMP:  72;

GRAND RAPIDS   PTSUNNY   69  54  58 SE6       29.74F
6HR MIN TEMP:  51; 6HR MAX TEMP:  70;

KALAMAZOO      SUNNY     69  51  52 VRB7      29.75F
6HR MIN TEMP:  55; 6HR MAX TEMP:  70;

STURGIS*       PTSUNNY   69  54  60 S9        29.75F
6HR MIN TEMP:  53; 6HR MAX TEMP:  69;

THREE RIVERS*  FAIR      68  54  59 S8        29.75F
6HR MIN TEMP:  54; 6HR MAX TEMP:  68;


$$
OHZ001>008-015>018-024>025-251900-
NORTHWEST OHIO

CITY           SKY/WX    TMP DP  RH WIND       PRES   REMARKS
WAUSEON*       FAIR      72  54  53 VRB7G15   29.78F
DEFIANCE       SUNNY     68  52  56 S9        29.77F
6HR MIN TEMP:  52; 6HR MAX TEMP:  68;

FINDLAY        SUNNY     74  53  48 SE10      29.75F
6HR MIN TEMP:  56; 6HR MAX TEMP:  74;

TOLEDO EXPRESS SUNNY     69  53  56 E9        29.77F
6HR MIN TEMP:  54; 6HR MAX TEMP:  70;

TOLEDO METCALF SUNNY     71  55  56 E8        29.78F
6HR MIN TEMP:  54; 6HR MAX TEMP:  71;

LIMA           SUNNY     73  54  51 S13G20    29.76F
6HR MIN TEMP:  54; 6HR MAX TEMP:  73;


$$
AND FOR LAKE MICHIGAN COASTAL AND OPEN LAKE BUOY OBSERVATIONS

STATION/POSITION TEMP    WIND        PRES    VSBY  WAVE
                 AIR SEA DIR/SP/G                  HT/PER
                 (F)     (DEG/KT/KT) (MB)    (MI)  (FT/S)
CALUMET HARBOR    73     150/ 12/ 15 1004.4F
MICHIGAN CITY     70     160/ 12/ 15   N/A
BURNS HARBOR      74     160/  7/ 15 1006.1F
SOUTH LAKE BUOY   47 41  130/  8/ 10 1006.8          1/ 3
4 MI NW BRIDGMAN  62 50  170/  8/  8 1006.0          1

$$
&&




USA.gov is the U.S. government's official web portal to all federal, state and local government web resources and services.